﻿測定場所 (Monitoring sites),日付 (Measurement date),時間 (Measurement time),線量率 最大値 (max) μGy/h,線量率 最小値 (min) μGy/h,線量率 平均値 (average) μGy/h,
調布 (Chofu),2018-08-12,23:01～24:00,0.0375,0.0307,0.0339,
調布 (Chofu),2018-08-12,22:01～23:00,0.0407,0.0334,0.0366,
調布 (Chofu),2018-08-12,21:01～22:00,0.0361,0.0271,0.0304,
調布 (Chofu),2018-08-12,20:01～21:00,0.0311,0.0264,0.0287,
調布 (Chofu),2018-08-12,19:01～20:00,0.0309,0.0270,0.0284,
調布 (Chofu),2018-08-12,18:01～19:00,0.0307,0.0269,0.0288,
調布 (Chofu),2018-08-12,17:01～18:00,0.0307,0.0270,0.0287,
調布 (Chofu),2018-08-12,16:01～17:00,0.0308,0.0266,0.0285,
調布 (Chofu),2018-08-12,15:01～16:00,0.0308,0.0258,0.0286,
調布 (Chofu),2018-08-12,14:01～15:00,0.0313,0.0261,0.0286,
調布 (Chofu),2018-08-12,13:01～14:00,0.0308,0.0272,0.0287,
調布 (Chofu),2018-08-12,12:01～13:00,0.0308,0.0268,0.0288,
調布 (Chofu),2018-08-12,11:01～12:00,0.0311,0.0265,0.0285,
調布 (Chofu),2018-08-12,10:01～11:00,0.0311,0.0263,0.0287,
調布 (Chofu),2018-08-12,09:01～10:00,0.0306,0.0268,0.0286,
調布 (Chofu),2018-08-12,08:01～09:00,0.0310,0.0257,0.0284,
調布 (Chofu),2018-08-12,07:01～08:00,0.0314,0.0276,0.0287,
調布 (Chofu),2018-08-12,06:01～07:00,0.0308,0.0269,0.0287,
調布 (Chofu),2018-08-12,05:01～06:00,0.0312,0.0273,0.0295,
調布 (Chofu),2018-08-12,04:01～05:00,0.0343,0.0289,0.0314,
調布 (Chofu),2018-08-12,03:01～04:00,0.0362,0.0290,0.0323,
調布 (Chofu),2018-08-12,02:01～03:00,0.0321,0.0271,0.0295,
調布 (Chofu),2018-08-12,01:01～02:00,0.0300,0.0262,0.0282,
調布 (Chofu),2018-08-12,00:01～01:00,0.0311,0.0258,0.0286,
調布 (Chofu),2018-08-11,23:01～24:00,0.0301,0.0258,0.0281,
調布 (Chofu),2018-08-11,22:01～23:00,0.0311,0.0265,0.0285,
調布 (Chofu),2018-08-11,21:01～22:00,0.0314,0.0259,0.0288,
調布 (Chofu),2018-08-11,20:01～21:00,0.0308,0.0271,0.0287,
調布 (Chofu),2018-08-11,19:01～20:00,0.0304,0.0267,0.0287,
調布 (Chofu),2018-08-11,18:01～19:00,0.0305,0.0271,0.0286,
調布 (Chofu),2018-08-11,17:01～18:00,0.0303,0.0265,0.0285,
調布 (Chofu),2018-08-11,16:01～17:00,0.0307,0.0274,0.0291,
調布 (Chofu),2018-08-11,15:01～16:00,0.0324,0.0276,0.0303,
調布 (Chofu),2018-08-11,14:01～15:00,0.0344,0.0300,0.0322,
調布 (Chofu),2018-08-11,13:01～14:00,0.0315,0.0265,0.0293,
調布 (Chofu),2018-08-11,12:01～13:00,0.0308,0.0270,0.0286,
調布 (Chofu),2018-08-11,11:01～12:00,0.0307,0.0258,0.0287,
調布 (Chofu),2018-08-11,10:01～11:00,0.0307,0.0267,0.0290,
調布 (Chofu),2018-08-11,09:01～10:00,0.0303,0.0274,0.0289,
調布 (Chofu),2018-08-11,08:01～09:00,0.0310,0.0272,0.0289,
調布 (Chofu),2018-08-11,07:01～08:00,0.0310,0.0269,0.0289,
調布 (Chofu),2018-08-11,06:01～07:00,0.0311,0.0277,0.0292,
調布 (Chofu),2018-08-11,05:01～06:00,0.0313,0.0269,0.0292,
調布 (Chofu),2018-08-11,04:01～05:00,0.0314,0.0272,0.0291,
調布 (Chofu),2018-08-11,03:01～04:00,0.0306,0.0267,0.0287,
調布 (Chofu),2018-08-11,02:01～03:00,0.0313,0.0269,0.0291,
調布 (Chofu),2018-08-11,01:01～02:00,0.0312,0.0264,0.0289,
調布 (Chofu),2018-08-11,00:01～01:00,0.0303,0.0270,0.0287,
調布 (Chofu),2018-08-10,23:01～24:00,0.0320,0.0259,0.0288,
調布 (Chofu),2018-08-10,22:01～23:00,0.0305,0.0269,0.0285,
調布 (Chofu),2018-08-10,21:01～22:00,0.0300,0.0265,0.0284,
調布 (Chofu),2018-08-10,20:01～21:00,0.0306,0.0271,0.0288,
調布 (Chofu),2018-08-10,19:01～20:00,0.0302,0.0265,0.0285,
調布 (Chofu),2018-08-10,18:01～19:00,0.0309,0.0266,0.0287,
調布 (Chofu),2018-08-10,17:01～18:00,0.0307,0.0267,0.0289,
調布 (Chofu),2018-08-10,16:01～17:00,0.0306,0.0264,0.0286,
調布 (Chofu),2018-08-10,15:01～16:00,0.0297,0.0271,0.0283,
調布 (Chofu),2018-08-10,14:01～15:00,0.0306,0.0269,0.0287,
調布 (Chofu),2018-08-10,13:01～14:00,0.0302,0.0266,0.0284,
調布 (Chofu),2018-08-10,12:01～13:00,0.0304,0.0266,0.0285,
調布 (Chofu),2018-08-10,11:01～12:00,0.0309,0.0271,0.0286,
調布 (Chofu),2018-08-10,10:01～11:00,0.0305,0.0256,0.0288,
調布 (Chofu),2018-08-10,09:01～10:00,0.0304,0.0257,0.0285,
調布 (Chofu),2018-08-10,08:01～09:00,0.0302,0.0269,0.0286,
調布 (Chofu),2018-08-10,07:01～08:00,0.0303,0.0264,0.0284,
調布 (Chofu),2018-08-10,06:01～07:00,0.0317,0.0268,0.0285,
調布 (Chofu),2018-08-10,05:01～06:00,0.0303,0.0266,0.0283,
調布 (Chofu),2018-08-10,04:01～05:00,0.0307,0.0267,0.0284,
調布 (Chofu),2018-08-10,03:01～04:00,0.0302,0.0269,0.0287,
調布 (Chofu),2018-08-10,02:01～03:00,0.0307,0.0266,0.0286,
調布 (Chofu),2018-08-10,01:01～02:00,0.0314,0.0254,0.0286,
調布 (Chofu),2018-08-10,00:01～01:00,0.0308,0.0267,0.0287,
調布 (Chofu),2018-08-09,23:01～24:00,0.0302,0.0272,0.0286,
調布 (Chofu),2018-08-09,22:01～23:00,0.0308,0.0269,0.0285,
調布 (Chofu),2018-08-09,21:01～22:00,0.0301,0.0264,0.0283,
調布 (Chofu),2018-08-09,20:01～21:00,0.0303,0.0268,0.0284,
調布 (Chofu),2018-08-09,19:01～20:00,0.0300,0.0267,0.0285,
調布 (Chofu),2018-08-09,18:01～19:00,0.0300,0.0254,0.0282,
調布 (Chofu),2018-08-09,17:01～18:00,0.0301,0.0266,0.0284,
調布 (Chofu),2018-08-09,16:01～17:00,0.0304,0.0271,0.0287,
調布 (Chofu),2018-08-09,15:01～16:00,0.0301,0.0271,0.0288,
調布 (Chofu),2018-08-09,14:01～15:00,0.0310,0.0269,0.0288,
調布 (Chofu),2018-08-09,13:01～14:00,0.0304,0.0262,0.0286,
調布 (Chofu),2018-08-09,12:01～13:00,0.0308,0.0266,0.0284,
調布 (Chofu),2018-08-09,11:01～12:00,0.0310,0.0263,0.0282,
調布 (Chofu),2018-08-09,10:01～11:00,0.0304,0.0264,0.0282,
調布 (Chofu),2018-08-09,09:01～10:00,0.0297,0.0263,0.0279,
調布 (Chofu),2018-08-09,08:01～09:00,0.0297,0.0266,0.0281,
調布 (Chofu),2018-08-09,07:01～08:00,0.0308,0.0269,0.0285,
調布 (Chofu),2018-08-09,06:01～07:00,0.0340,0.0282,0.0305,
調布 (Chofu),2018-08-09,05:01～06:00,0.0357,0.0302,0.0332,
調布 (Chofu),2018-08-09,04:01～05:00,0.0360,0.0309,0.0332,
調布 (Chofu),2018-08-09,03:01～04:00,0.0393,0.0328,0.0351,
調布 (Chofu),2018-08-09,02:01～03:00,0.0361,0.0312,0.0341,
調布 (Chofu),2018-08-09,01:01～02:00,0.0358,0.0301,0.0325,
調布 (Chofu),2018-08-09,00:01～01:00,0.0349,0.0288,0.0324,
調布 (Chofu),2018-08-08,23:01～24:00,0.0349,0.0299,0.0323,
調布 (Chofu),2018-08-08,22:01～23:00,0.0348,0.0309,0.0326,
調布 (Chofu),2018-08-08,21:01～22:00,0.0341,0.0283,0.0314,
調布 (Chofu),2018-08-08,20:01～21:00,0.0312,0.0271,0.0291,
調布 (Chofu),2018-08-08,19:01～20:00,0.0313,0.0270,0.0294,
調布 (Chofu),2018-08-08,18:01～19:00,0.0321,0.0284,0.0303,
調布 (Chofu),2018-08-08,17:01～18:00,0.0334,0.0283,0.0303,
調布 (Chofu),2018-08-08,16:01～17:00,0.0312,0.0278,0.0295,
調布 (Chofu),2018-08-08,15:01～16:00,0.0304,0.0267,0.0289,
調布 (Chofu),2018-08-08,14:01～15:00,0.0321,0.0279,0.0298,
調布 (Chofu),2018-08-08,13:01～14:00,0.0325,0.0282,0.0303,
調布 (Chofu),2018-08-08,12:01～13:00,0.0324,0.0290,0.0308,
調布 (Chofu),2018-08-08,11:01～12:00,0.0327,0.0286,0.0307,
調布 (Chofu),2018-08-08,10:01～11:00,0.0342,0.0289,0.0312,
調布 (Chofu),2018-08-08,09:01～10:00,0.0342,0.0298,0.0313,
調布 (Chofu),2018-08-08,08:01～09:00,0.0322,0.0280,0.0300,
調布 (Chofu),2018-08-08,07:01～08:00,0.0311,0.0269,0.0291,
調布 (Chofu),2018-08-08,06:01～07:00,0.0303,0.0267,0.0284,
調布 (Chofu),2018-08-08,05:01～06:00,0.0306,0.0265,0.0285,
調布 (Chofu),2018-08-08,04:01～05:00,0.0303,0.0273,0.0288,
調布 (Chofu),2018-08-08,03:01～04:00,0.0320,0.0273,0.0293,
調布 (Chofu),2018-08-08,02:01～03:00,0.0318,0.0267,0.0294,
調布 (Chofu),2018-08-08,01:01～02:00,0.0313,0.0278,0.0293,
調布 (Chofu),2018-08-08,00:01～01:00,0.0322,0.0288,0.0304,
調布 (Chofu),2018-08-07,23:01～24:00,0.0318,0.0277,0.0298,
調布 (Chofu),2018-08-07,22:01～23:00,0.0312,0.0266,0.0291,
調布 (Chofu),2018-08-07,21:01～22:00,0.0320,0.0272,0.0289,
調布 (Chofu),2018-08-07,20:01～21:00,0.0310,0.0270,0.0292,
調布 (Chofu),2018-08-07,19:01～20:00,0.0307,0.0272,0.0288,
調布 (Chofu),2018-08-07,18:01～19:00,0.0306,0.0266,0.0287,
調布 (Chofu),2018-08-07,17:01～18:00,0.0308,0.0268,0.0291,
調布 (Chofu),2018-08-07,16:01～17:00,0.0310,0.0270,0.0288,
調布 (Chofu),2018-08-07,15:01～16:00,0.0314,0.0272,0.0285,
調布 (Chofu),2018-08-07,14:01～15:00,0.0313,0.0265,0.0291,
調布 (Chofu),2018-08-07,13:01～14:00,0.0324,0.0275,0.0297,
調布 (Chofu),2018-08-07,12:01～13:00,0.0344,0.0286,0.0312,
調布 (Chofu),2018-08-07,11:01～12:00,0.0414,0.0317,0.0354,
調布 (Chofu),2018-08-07,10:01～11:00,0.0408,0.0341,0.0373,
調布 (Chofu),2018-08-07,09:01～10:00,0.0355,0.0299,0.0324,
調布 (Chofu),2018-08-07,08:01～09:00,0.0356,0.0313,0.0335,
調布 (Chofu),2018-08-07,07:01～08:00,0.0385,0.0315,0.0345,
調布 (Chofu),2018-08-07,06:01～07:00,0.0405,0.0327,0.0365,
調布 (Chofu),2018-08-07,05:01～06:00,0.0351,0.0314,0.0332,
調布 (Chofu),2018-08-07,04:01～05:00,0.0366,0.0321,0.0338,
調布 (Chofu),2018-08-07,03:01～04:00,0.0373,0.0315,0.0343,
調布 (Chofu),2018-08-07,02:01～03:00,0.0371,0.0318,0.0348,
調布 (Chofu),2018-08-07,01:01～02:00,0.0423,0.0344,0.0375,
調布 (Chofu),2018-08-07,00:01～01:00,0.0500,0.0402,0.0442,
調布 (Chofu),2018-08-06,23:01～24:00,0.0455,0.0367,0.0417,
調布 (Chofu),2018-08-06,22:01～23:00,0.0397,0.0282,0.0329,
調布 (Chofu),2018-08-06,21:01～22:00,0.0312,0.0268,0.0292,
調布 (Chofu),2018-08-06,20:01～21:00,0.0318,0.0274,0.0295,
調布 (Chofu),2018-08-06,19:01～20:00,0.0315,0.0271,0.0294,
調布 (Chofu),2018-08-06,18:01～19:00,0.0319,0.0272,0.0296,
調布 (Chofu),2018-08-06,17:01～18:00,0.0318,0.0277,0.0298,
調布 (Chofu),2018-08-06,16:01～17:00,0.0326,0.0279,0.0297,
調布 (Chofu),2018-08-06,15:01～16:00,0.0315,0.0280,0.0299,
調布 (Chofu),2018-08-06,14:01～15:00,0.0327,0.0278,0.0299,
調布 (Chofu),2018-08-06,13:01～14:00,0.0330,0.0276,0.0301,
調布 (Chofu),2018-08-06,12:01～13:00,0.0320,0.0282,0.0300,
調布 (Chofu),2018-08-06,11:01～12:00,0.0317,0.0281,0.0300,
調布 (Chofu),2018-08-06,10:01～11:00,0.0332,0.0266,0.0303,
調布 (Chofu),2018-08-06,09:01～10:00,0.0328,0.0289,0.0301,
調布 (Chofu),2018-08-06,08:01～09:00,0.0323,0.0281,0.0301,
調布 (Chofu),2018-08-06,07:01～08:00,0.0324,0.0279,0.0304,
調布 (Chofu),2018-08-06,06:01～07:00,0.0328,0.0282,0.0301,
調布 (Chofu),2018-08-06,05:01～06:00,0.0324,0.0284,0.0304,
調布 (Chofu),2018-08-06,04:01～05:00,0.0329,0.0283,0.0302,
調布 (Chofu),2018-08-06,03:01～04:00,0.0323,0.0278,0.0299,
調布 (Chofu),2018-08-06,02:01～03:00,0.0322,0.0279,0.0300,
調布 (Chofu),2018-08-06,01:01～02:00,0.0322,0.0283,0.0299,
調布 (Chofu),2018-08-06,00:01～01:00,0.0323,0.0278,0.0300,
